Sault Ste Marie, MI

8:33 PM EDT on June 28, 2017 (GMT -0400)
Sault Ste Marie Municipal / Sanderson Field

Weather History for KANJ - August, 2012

Change the Weather History Date:

Tuesday, August 7, 2012

  Actual Average Record
Temperature  
Mean Temperature 69 °F 66 °F  
Max Temperature 77 °F 76 °F 92 °F (2001)
Min Temperature 61 °F 55 °F 40 °F (1976)
Degree Days  
Heating Degree Days 0 2  
Month to date heating degree days 1 14  
Since 1 June heating degree days 106 263  
Since 1 July heating degree days 6 83  
Cooling Degree Days 4 3  
Month to date cooling degree days 32 21  
Year to date cooling degree days 302 134  
Since 1 June cooling degree days 285 129  
Growing Degree Days 19 (Base 50)    
Moisture  
Dew Point 60 °F    
Average Humidity 76    
Maximum Humidity 93    
Minimum Humidity 59    
Precipitation  
Precipitation 0.28 in 0.10 in 2.69 in (1979)
Month to date precipitation 0.48 0.71  
Year to date precipitation 15.51 16.71  
Sea Level Pressure  
Sea Level Pressure 29.89 in    
Wind  
Wind Speed 7 mph (WNW)    
Max Wind Speed 18 mph    
Max Gust Speed 26 mph    
Visibility 9 miles    
Events Rain , Thunderstorm    
T = Trace of Precipitation, MM = Missing Value Source: NWS Daily Summary

Daily Weather History Graph

Daily Weather History Graph

Search for Another Location

Airport or City:

Trip Planner

Search our weather history database for the weather conditions in past years. The results will help you decide how hot, cold, wet, or windy it might be!

Date:

Astronomy

Aug. 07, 2012 Rise Set
Actual Time 6:26 AM EDT 8:59 PM EDT
Civil Twilight 5:52 AM EDT 9:32 PM EDT
Nautical Twilight 5:09 AM EDT 10:15 PM EDT
Astronomical Twilight 4:20 AM EDT 11:04 PM EDT
Moon 11:11 PM EDT (8/7) 12:39 PM EDT (8/7)
Length of Visible Light 15h 40m
Length of Day
14h 32m
Waning Gibbous, 70% of the Moon is Illuminated
Aug 7
Waning Gibbous
Aug 9
Last Quarter
Aug 17
New
Aug 24
First Quarter
Aug 31
Full

Hourly Weather History & Observations

Time (EDT) Temp. Dew Point Humidity Pressure Visibility Wind Dir Wind Speed Gust Speed Precip Events Conditions
12:32 AM 68.0 °F 60.8 °F 78% 29.89 in 10.0 mi SSW 5.8 mph - N/A Thunderstorm Thunderstorm
12:48 AM 68.0 °F 60.1 °F 76% 29.89 in 10.0 mi SW 4.6 mph - N/A   Mostly Cloudy
12:55 AM 68.0 °F 60.1 °F 76% 29.88 in 10.0 mi SW 3.5 mph - 0.00 in Rain Light Rain
1:08 AM 66.9 °F 61.0 °F 81% 29.91 in 5.0 mi WNW 5.8 mph - 0.01 in Rain , Thunderstorm Thunderstorms and Rain
1:14 AM 66.0 °F 61.0 °F 84% 29.92 in 2.5 mi North - - 0.03 in Rain , Thunderstorm Heavy Thunderstorms and Rain
1:18 AM 64.9 °F 62.1 °F 90% 29.93 in 1.5 mi WNW 16.1 mph 23.0 mph 0.12 in Rain , Thunderstorm Heavy Thunderstorms and Rain
1:25 AM 64.9 °F 62.1 °F 90% 29.93 in 2.0 mi WNW 12.7 mph 23.0 mph 0.20 in Rain , Thunderstorm Heavy Thunderstorms and Rain
1:35 AM 64.0 °F 60.1 °F 87% 29.92 in 4.0 mi WNW 10.4 mph - 0.24 in Rain , Thunderstorm Thunderstorms and Rain
1:45 AM 64.0 °F 60.1 °F 87% 29.91 in 5.0 mi NW 4.6 mph - 0.26 in Rain Rain
1:55 AM 64.0 °F 61.0 °F 90% 29.88 in 8.0 mi Calm Calm - 0.28 in Rain Light Rain
2:55 AM 64.0 °F 61.0 °F 90% 29.86 in 10.0 mi SSE 4.6 mph - 0.00 in   Mostly Cloudy
3:55 AM 63.0 °F 61.0 °F 93% 29.86 in 10.0 mi Calm Calm - N/A   Overcast
4:55 AM 63.0 °F 61.0 °F 93% 29.84 in 10.0 mi Calm Calm - N/A   Scattered Clouds
5:55 AM 63.0 °F 60.1 °F 90% 29.83 in 10.0 mi SE 3.5 mph - N/A   Clear
6:55 AM 63.0 °F 60.1 °F 90% 29.83 in 10.0 mi Calm Calm - N/A   Mostly Cloudy
7:55 AM 64.9 °F 62.1 °F 90% 29.85 in 10.0 mi Calm Calm - N/A   Mostly Cloudy
8:55 AM 69.1 °F 64.0 °F 84% 29.85 in 10.0 mi Calm Calm - N/A   Scattered Clouds
9:55 AM 69.1 °F 63.0 °F 81% 29.86 in 10.0 mi West 6.9 mph - N/A   Overcast
10:30 AM 69.1 °F 63.0 °F 81% 29.86 in 10.0 mi WNW 6.9 mph - N/A   Overcast
10:55 AM 69.1 °F 63.0 °F 81% 29.86 in 10.0 mi WNW 5.8 mph - N/A   Overcast
11:55 AM 73.0 °F 63.0 °F 71% 29.86 in 10.0 mi West 11.5 mph - N/A   Mostly Cloudy
12:55 PM 73.9 °F 63.0 °F 68% 29.87 in 10.0 mi West 11.5 mph - N/A   Clear
1:55 PM 75.9 °F 62.1 °F 62% 29.87 in 10.0 mi WNW 9.2 mph - N/A   Clear
2:55 PM 75.0 °F 62.1 °F 64% 29.88 in 10.0 mi WNW 12.7 mph 18.4 mph N/A   Clear
3:55 PM 73.9 °F 62.1 °F 66% 29.89 in 10.0 mi NW 12.7 mph - N/A   Clear
4:55 PM 73.9 °F 60.1 °F 62% 29.90 in 10.0 mi NW 12.7 mph - N/A   Clear
5:55 PM 71.1 °F 59.0 °F 66% 29.92 in 10.0 mi NW 16.1 mph - N/A   Clear
6:55 PM 70.0 °F 55.9 °F 61% 29.94 in 10.0 mi NW 16.1 mph 24.2 mph N/A   Clear
7:55 PM 68.0 °F 53.1 °F 59% 29.94 in 10.0 mi WNW 10.4 mph 21.9 mph N/A   Clear
8:55 PM 64.0 °F 57.0 °F 78% 29.96 in 10.0 mi WNW 12.7 mph - N/A   Clear
9:55 PM 63.0 °F 57.0 °F 81% 29.96 in 10.0 mi WNW 9.2 mph - N/A   Clear
10:55 PM 63.0 °F 57.0 °F 81% 29.96 in 10.0 mi WNW 9.2 mph - N/A   Partly Cloudy
11:55 PM 62.1 °F 57.0 °F 84% 29.96 in 10.0 mi WNW 6.9 mph - N/A   Clear